Date String (YYYY-MM-DD hh:mm:ss) UTC,Instrument flags,Ambient pressure (hPa),Sample flow (lpm),Bypass flow (lpm),Sample temperature (°C),Ambient temperature (°C),ASC tube jacket temperature (°C),LED temperature (°C),Box temperature (°C),Sample RH (%),Span deviation,Mass concentration (μg/m³),Mass concentration (μg/m³),Mass concentration (μg/m³)
DateTimeUTC,F1_M11,P_M11,Q1_M11,Q2_M11,T1_M11,T2_M11,T3_M11,T4_M11,T5_M11,U1_M11,ZSPAN_M11,X2_M11,X0_M11,X1_M11
2022-10-22 23:00:00,,0808.6,5.00,0.00,29.7,28.0,00.0,38.4,31.6,07.9,0000.0,0003.30,0008.49,0002.42
2022-10-22 23:01:00,,0808.6,5.01,0.00,29.7,28.2,00.0,38.4,31.7,07.7,0000.0,0003.25,0008.32,0002.42
2022-10-22 23:02:00,,0808.6,5.00,0.00,29.7,28.4,00.0,38.5,31.7,07.8,0000.0,0003.22,0009.11,0002.43
2022-10-22 23:03:00,,0808.6,5.00,0.00,29.8,28.5,00.0,38.5,31.7,07.7,0000.0,0003.21,0009.17,0002.44
2022-10-22 23:04:00,,0808.6,5.00,0.00,29.8,28.6,00.0,38.5,31.8,07.9,0000.0,0003.22,0009.82,0002.45
2022-10-22 23:05:00,,0808.6,4.99,0.00,29.8,28.7,00.0,38.5,31.8,07.7,0000.0,0003.23,0009.94,0002.46
2022-10-22 23:06:00,,0808.6,5.00,0.00,29.9,28.8,00.0,38.6,31.9,07.5,0000.0,0003.26,0010.12,0002.45
2022-10-22 23:07:00,,0808.6,4.99,0.00,29.9,28.2,00.0,38.5,31.8,07.5,0000.0,0003.24,0010.02,0002.45
2022-10-22 23:08:00,,0808.6,5.00,0.00,29.9,26.9,00.0,38.5,31.6,07.6,0000.0,0003.22,0009.11,0002.46
2022-10-22 23:09:00,,0808.5,5.00,0.00,29.8,26.7,00.0,38.5,31.6,07.6,0000.0,0003.20,0009.14,0002.47
2022-10-22 23:10:00,,0808.5,4.99,0.00,29.8,27.0,00.0,38.5,31.5,07.6,0000.0,0003.19,0009.45,0002.50
2022-10-22 23:11:00,,0808.5,5.02,0.00,29.7,27.3,00.0,38.5,31.5,07.7,0000.0,0003.19,0010.11,0002.49
2022-10-22 23:12:00,,0808.5,4.99,0.00,29.7,27.6,00.0,38.5,31.6,07.8,0000.0,0003.17,0010.10,0002.48
2022-10-22 23:13:00,,0808.5,5.00,0.00,29.7,27.9,00.0,38.5,31.6,07.8,0000.0,0003.20,0010.21,0002.48
2022-10-22 23:14:00,,0808.5,4.99,0.00,29.7,28.1,00.0,38.5,31.7,07.8,0000.0,0003.20,0010.33,0002.48
2022-10-22 23:15:00,,0808.4,5.00,0.00,29.8,28.3,00.0,38.5,31.7,07.7,0000.0,0003.17,0009.48,0002.47
2022-10-22 23:16:00,,0808.4,5.00,0.00,29.8,28.4,00.0,38.5,31.8,07.7,0000.0,0003.16,0009.28,0002.47
2022-10-22 23:17:00,,0808.4,5.01,0.00,29.8,28.6,00.0,38.5,31.8,07.6,0000.0,0003.15,0010.13,0002.47
2022-10-22 23:18:00,,0808.5,4.99,0.00,29.8,28.7,00.0,38.5,31.8,07.6,0000.0,0003.16,0010.47,0002.47
2022-10-22 23:19:00,,0808.5,5.00,0.00,29.9,28.7,00.0,38.6,31.9,07.7,0000.0,0003.16,0010.93,0002.45
2022-10-22 23:20:00,,0808.5,5.00,0.00,29.9,28.5,00.0,38.6,31.9,07.6,0000.0,0003.16,0010.83,0002.44
2022-10-22 23:21:00,,0808.5,5.02,0.00,29.9,27.2,00.0,38.5,31.8,07.7,0000.0,0003.15,0011.03,0002.42
2022-10-22 23:22:00,,0808.5,4.99,0.00,29.9,26.7,00.0,38.5,31.7,07.6,0000.0,0003.19,0010.46,0002.43
2022-10-22 23:23:00,,0808.5,4.99,0.00,29.8,26.8,00.0,38.5,31.6,07.6,0000.0,0003.23,0010.07,0002.44
2022-10-22 23:24:00,,0808.5,5.02,0.00,29.7,27.1,00.0,38.5,31.5,07.7,0000.0,0003.21,0009.69,0002.45
2022-10-22 23:25:00,,0808.5,4.98,0.00,29.7,27.5,00.0,38.5,31.6,07.8,0000.0,0003.19,0009.24,0002.46
2022-10-22 23:26:00,,0808.5,5.02,0.00,29.7,27.8,00.0,38.5,31.6,07.8,0000.0,0003.20,0009.57,0002.47
2022-10-22 23:27:00,,0808.5,5.00,0.00,29.7,28.0,00.0,38.5,31.7,07.8,0000.0,0003.25,0009.91,0002.48
2022-10-22 23:28:00,,0808.5,5.00,0.00,29.8,28.2,00.0,38.5,31.7,07.8,0000.0,0003.26,0009.02,0002.48
2022-10-22 23:29:00,,0808.4,5.00,0.00,29.8,28.4,00.0,38.5,31.8,07.7,0000.0,0003.26,0008.65,0002.47
2022-10-22 23:30:00,,0808.5,5.00,0.00,29.8,28.5,00.0,38.5,31.8,07.7,0000.0,0003.28,0008.75,0002.48
2022-10-22 23:31:00,,0808.4,5.01,0.00,29.8,28.6,00.0,38.5,31.8,07.7,0000.0,0003.29,0010.42,0002.47
2022-10-22 23:32:00,,0808.4,4.99,0.00,29.9,28.7,00.0,38.6,31.9,07.7,0000.0,0003.30,0010.62,0002.46
2022-10-22 23:33:00,,0808.6,5.01,0.00,29.9,28.8,00.0,38.6,31.9,07.7,0000.0,0003.26,0010.73,0002.45
2022-10-22 23:34:00,,0808.5,4.98,0.00,29.9,27.6,00.0,38.6,31.8,07.7,0000.0,0003.23,0010.69,0002.43
2022-10-22 23:35:00,,0808.6,5.02,0.00,29.9,26.7,00.0,38.5,31.7,07.8,0000.0,0003.23,0010.18,0002.40
2022-10-22 23:36:00,,0808.6,5.00,0.00,29.8,26.7,00.0,38.5,31.6,07.8,0000.0,0003.23,0011.06,0002.38
2022-10-22 23:37:00,,0808.6,5.00,0.00,29.7,27.0,00.0,38.5,31.5,07.7,0000.0,0003.22,0011.00,0002.37
2022-10-22 23:38:00,,0808.6,4.99,0.00,29.7,27.3,00.0,38.5,31.5,07.8,0000.0,0003.17,0011.43,0002.35
2022-10-22 23:39:00,,0808.6,5.02,0.00,29.7,27.6,00.0,38.5,31.6,07.9,0000.0,0003.18,0011.53,0002.35
2022-10-22 23:40:00,,0808.6,4.99,0.00,29.7,27.9,00.0,38.5,31.6,07.9,0000.0,0003.18,0011.59,0002.35
2022-10-22 23:41:00,,0808.6,5.00,0.00,29.7,28.1,00.0,38.5,31.7,07.9,0000.0,0003.16,0011.32,0002.34
2022-10-22 23:42:00,,0808.6,4.99,0.00,29.8,28.2,00.0,38.5,31.7,07.9,0000.0,0003.15,0009.54,0002.35
2022-10-22 23:43:00,,0808.6,5.01,0.00,29.8,28.4,00.0,38.5,31.7,07.8,0000.0,0003.14,0008.92,0002.36
2022-10-22 23:44:00,,0808.6,5.00,0.00,29.8,28.5,00.0,38.5,31.7,07.7,0000.0,0003.15,0008.50,0002.38
2022-10-22 23:45:00,,0808.6,4.98,0.00,29.8,28.7,00.0,38.5,31.8,07.8,0000.0,0003.19,0008.78,0002.39
2022-10-22 23:46:00,,0808.6,5.00,0.00,29.9,28.8,00.0,38.6,31.9,07.8,0000.0,0003.20,0008.75,0002.42
2022-10-22 23:47:00,,0808.7,5.01,0.00,29.9,28.7,00.0,38.6,31.9,07.8,0000.0,0003.24,0008.51,0002.42
2022-10-22 23:48:00,,0808.7,4.98,0.00,29.9,27.4,00.0,38.6,31.7,07.8,0000.0,0003.23,0008.31,0002.42
2022-10-22 23:49:00,,0808.7,5.02,0.00,29.8,26.0,00.0,38.5,31.5,07.8,0000.0,0003.26,0007.51,0002.45
2022-10-22 23:50:00,,0808.7,4.99,0.00,29.8,25.9,00.0,38.4,31.5,07.8,0000.0,0003.23,0007.57,0002.47
2022-10-22 23:51:00,,0808.7,5.00,0.00,29.6,26.1,00.0,38.4,31.3,07.8,0000.0,0003.21,0008.33,0002.48
2022-10-22 23:52:00,,0808.7,5.00,0.00,29.6,26.5,00.0,38.4,31.3,07.9,0000.0,0003.21,0008.39,0002.49
2022-10-22 23:53:00,,0808.7,4.99,0.00,29.6,26.9,00.0,38.4,31.3,07.9,0000.0,0003.22,0008.39,0002.51
2022-10-22 23:54:00,,0808.7,4.99,0.00,29.5,27.3,00.0,38.4,31.4,07.9,0000.0,0003.24,0008.37,0002.52
2022-10-22 23:55:00,,0808.7,5.03,0.00,29.5,27.5,00.0,38.4,31.4,07.8,0000.0,0003.24,0008.34,0002.52
2022-10-22 23:56:00,,0808.6,5.00,0.00,29.6,27.7,00.0,38.4,31.5,07.8,0000.0,0003.20,0008.56,0002.53
2022-10-22 23:57:00,,0808.6,4.98,0.00,29.6,27.9,00.0,38.4,31.5,07.8,0000.0,0003.20,0008.49,0002.54
2022-10-22 23:58:00,,0808.6,5.00,0.00,29.6,28.1,00.0,38.4,31.5,07.7,0000.0,0003.17,0008.09,0002.54
2022-10-22 23:59:00,,0808.7,5.01,0.00,29.6,28.2,00.0,38.4,31.5,07.7,0000.0,0003.21,0008.03,0002.57
